Change the Weather History Date:

Tuesday, December 4, 2012

  Actual Average Record
Temperature  
Mean Temperature 33 °F -  
Max Temperature 46 °F 37 °F 61 °F (1953)
Min Temperature 20 °F 24 °F 5 °F (2002)
Degree Days  
Heating Degree Days 32    
Moisture  
Dew Point 47 °F    
Average Humidity 87    
Maximum Humidity 100    
Minimum Humidity 58    
Precipitation  
Precipitation 0.00 in - - ()
Sea Level Pressure  
Sea Level Pressure 29.97 in    
Wind  
Wind Speed 10 mph ()    
Max Wind Speed 21 mph    
Max Gust Speed 31 mph    
Visibility 7.4 miles    
Events Rain    
Averages and records for this station are not official NWS values.
T = Trace of Precipitation, MM = Missing Value Source: Averaged Metar Reports

Daily Weather History Graph

Daily Weather History Graph

Search for Another Location

Airport or City:

Trip Planner

Search our weather history database for the weather conditions in past years. The results will help you decide how hot, cold, wet, or windy it might be!

Date:

Astronomy

Dec. 04, 2012 Rise Set
Actual Time 7:44 AM EST 4:54 PM EST
Civil Twilight 7:12 AM EST 5:26 PM EST
Nautical Twilight 6:36 AM EST 6:02 PM EST
Astronomical Twilight 6:02 AM EST 6:36 PM EST
Moon 10:47 PM EST (12/4) 11:32 AM EST (12/4)
Length of Visible Light 10h 14m
Length of Day
9h 10m
Waning Gibbous, 69% of the Moon is Illuminated
Dec 4
Waning Gibbous
Dec 6
Last Quarter
Dec 13
New
Dec 20
First Quarter
Dec 28
Full

Hourly Weather History & Observations

Time (EST) Temp. Windchill Dew Point Humidity Pressure Visibility Wind Dir Wind Speed Gust Speed Precip Events Conditions
12:00 AM 57.2 °F - 55.4 °F 94% 29.92 in 9.0 mi SSW 17.3 mph 24.2 mph N/A   Clear
1:00 AM 25 °F - 24 °F 95% 30.27 in - Calm Calm - -  
1:00 AM 59.0 °F - 55.4 °F 88% 29.91 in 9.0 mi SSW 19.6 mph 28.8 mph N/A   Scattered Clouds
2:00 AM 60.8 °F - 55.4 °F 82% 29.90 in 9.0 mi SSW 17.3 mph 29.9 mph N/A   Overcast
3:00 AM 59.0 °F - 53.6 °F 82% 29.91 in 9.0 mi SSW 20.7 mph 31.1 mph N/A   Scattered Clouds
4:00 AM 57.2 °F - 53.6 °F 88% 29.90 in 9.0 mi SSW 18.4 mph 25.3 mph N/A   Partly Cloudy
5:00 AM 57.2 °F - 51.8 °F 82% 29.90 in 9.0 mi SSW 13.8 mph - N/A   Mostly Cloudy
6:00 AM 57.2 °F - 51.8 °F 82% 29.90 in 9.0 mi SSW 13.8 mph - N/A   Mostly Cloudy
7:00 AM 21 °F - 20 °F 92% 30.32 in - Calm Calm - -  
7:00 AM 55.4 °F - 51.8 °F 88% 29.90 in 9.0 mi SSW 13.8 mph 19.6 mph N/A   Clear
8:00 AM 57.2 °F - 51.8 °F 82% 29.91 in 9.0 mi SSW 11.5 mph 18.4 mph N/A   Overcast
8:42 AM 57.2 °F - 51.8 °F 82% 29.92 in 9.0 mi SW 12.7 mph - N/A Rain Light Rain
8:51 AM 57.2 °F - 51.8 °F 82% 29.93 in 9.0 mi WSW 11.5 mph 19.6 mph N/A Rain Light Rain
8:53 AM 57.2 °F - 51.8 °F 82% 29.93 in 5.0 mi WSW 13.8 mph - N/A Rain Heavy Rain
8:54 AM 57.2 °F - 51.8 °F 82% 29.93 in 5.0 mi WSW 12.7 mph 19.6 mph N/A Rain Rain
9:00 AM 55.4 °F - 53.6 °F 94% 29.93 in 4.0 mi WSW 10.4 mph 19.6 mph N/A Rain Rain
9:23 AM 55.4 °F - 53.6 °F 94% 29.95 in 4.0 mi West 10.4 mph - N/A Rain Rain
9:25 AM 55.4 °F - 53.6 °F 94% 29.94 in 4.0 mi West 11.5 mph - N/A Rain Rain
9:26 AM 55.4 °F - 53.6 °F 94% 29.94 in 4.0 mi West 11.5 mph - N/A Rain Heavy Rain
9:27 AM 55.4 °F - 53.6 °F 94% 29.94 in 4.0 mi West 10.4 mph - N/A Rain Heavy Rain
9:32 AM 53.6 °F - 53.6 °F 100% 29.95 in 4.0 mi West 9.2 mph - N/A Rain Rain
9:45 AM 53.6 °F - 53.6 °F 100% 29.96 in 4.0 mi West 8.1 mph - N/A Rain Light Rain
9:54 AM 53.6 °F - 53.6 °F 100% 29.96 in 4.0 mi West 5.8 mph - N/A Rain Rain
9:57 AM 53.6 °F - 53.6 °F 100% 29.96 in 4.0 mi West 5.8 mph - N/A Rain Rain
10:00 AM 53.6 °F - 53.6 °F 100% 29.96 in 3.0 mi WNW 5.8 mph - N/A Rain Rain
10:17 AM 53.6 °F - 51.8 °F 94% 29.95 in 5.0 mi NW 8.1 mph - N/A Rain Light Rain
10:18 AM 53.6 °F - 51.8 °F 94% 29.94 in 6.0 mi NW 8.1 mph - N/A Rain Light Rain
10:24 AM 53.6 °F - 51.8 °F 94% 29.95 in 7.0 mi NNW 9.2 mph - N/A Rain Light Rain
10:27 AM 53.6 °F - 51.8 °F 94% 29.96 in 5.0 mi NW 10.4 mph - N/A Rain Light Rain
10:32 AM 51.8 °F - 48.2 °F 88% 29.97 in 6.0 mi WNW 11.5 mph 18.4 mph N/A Rain Light Rain
10:50 AM 51.8 °F - 48.2 °F 88% 29.97 in 9.0 mi WNW 6.9 mph - N/A Rain Light Rain
11:00 AM 51.8 °F - 48.2 °F 88% 29.97 in 9.0 mi West 5.8 mph - N/A Rain Light Rain
12:00 PM 50.0 °F - 46.4 °F 87% 29.94 in 9.0 mi West 5.8 mph - N/A Rain Light Rain
12:37 PM 50.0 °F - 44.6 °F 82% 29.96 in 9.0 mi SW 5.8 mph - N/A   Overcast
1:00 PM 39 °F - 29 °F 58% 30.19 in - SSW 5.8 mph - -  
1:00 PM 50.0 °F - 44.6 °F 82% 29.95 in 9.0 mi SW 8.1 mph - N/A   Overcast
1:03 PM 50.0 °F - 44.6 °F 82% 29.95 in 9.0 mi SSW 9.2 mph - N/A Rain Light Rain
1:13 PM 48.2 °F - 44.6 °F 87% 29.95 in 9.0 mi SSW 8.1 mph - N/A   Overcast
1:38 PM 48.2 °F - 44.6 °F 87% 29.96 in 9.0 mi WSW 5.8 mph - N/A Rain Light Rain
1:49 PM 50.0 °F - 44.6 °F 82% 29.94 in 9.0 mi SW 8.1 mph - N/A   Overcast
2:00 PM 50.0 °F - 44.6 °F 82% 29.94 in 9.0 mi SW 9.2 mph - N/A   Overcast
3:00 PM 48.2 °F - 44.6 °F 87% 29.95 in 9.0 mi WSW 8.1 mph - N/A   Overcast
4:00 PM 48.2 °F - 44.6 °F 87% 29.96 in 9.0 mi WSW 6.9 mph - N/A   Scattered Clouds
5:00 PM 48.2 °F - 44.6 °F 87% 29.97 in 9.0 mi WSW 6.9 mph - N/A   Overcast
6:00 PM 46.4 °F 43.5 °F 41.0 °F 81% 29.99 in 9.0 mi WSW 5.8 mph - N/A   Overcast
7:00 PM 36 °F - 33 °F 86% 30.06 in - SSW 9.2 mph - -  
7:00 PM 46.4 °F 42.4 °F 39.2 °F 76% 30.00 in 9.0 mi SW 8.1 mph - N/A   Scattered Clouds
8:00 PM 46.4 °F 41.9 °F 37.4 °F 71% 30.00 in 9.0 mi WSW 9.2 mph - N/A   Clear
9:00 PM 42.8 °F 38.6 °F 35.6 °F 76% 30.03 in 9.0 mi West 6.9 mph - N/A   Clear
10:00 PM 42.8 °F 39.3 °F 33.8 °F 70% 30.05 in 9.0 mi West 5.8 mph - N/A   Clear
11:00 PM 41.0 °F 37.1 °F 33.8 °F 76% 30.07 in 9.0 mi West 5.8 mph - N/A   Clear